{"data":{"norad_id":57191,"epoch":"2026-05-25T03:38:38.803200Z","epoch_age_seconds":72054,"freshness":"FRESH","line1":"1 57191U 23091AB  26145.15183800  .00004340  00000+0  21103-3 0  9992","line2":"2 57191  97.5061 203.0909 0014989 203.8114 156.2428 15.18855891160451","mean_motion":15.18855891,"eccentricity":0.0014989,"inclination_deg":97.5061,"raan_deg":203.0909,"arg_perigee_deg":203.8114,"mean_anomaly_deg":156.2428,"bstar":0.00021103,"rev_number":16045,"period_min":94.808204552699,"perigee_km":498.97360194657,"apogee_km":519.62075212248,"semimajor_km":6887.4341770345,"source":"CELESTRAK","updated_at":"2026-05-25T13:38:23.292673Z"}}